Theta_e
339 338 340 338 337 339 340 340 339 338 336 338 337 335 335 335 336 335 334 333 334 335 334 332 336 334 331 330 334 332 335 336 340 337 336 334 334 340 342 341 341 341 338 338 335 335 334 334 334 332 331 330 329 330 330 329 329 330 330 336 337 335 334 332 330 329 328 327 327 327 327 327 327 327 327 326 325 325 325 325 325 324 324 324 324
341 339 336 338 339 340 340 339 338 339 337 337 338 338 339 337 335 333 331 332 331 333 334 332 331 333 331 328 331 332 336 334 335 336 336 335 334 338 342 341 341 342 341 339 337 336 335 334 335 334 332 330 330 329 330 330 329 329 330 335 337 335 334 333 331 330 328 327 327 326 327 327 327 326 325 325 325 324 324 324 324 324 323 323 323
337 338 340 338 337 337 339 340 341 342 346 343 341 343 341 339 335 334 332 331 329 332 332 331 331 329 329 327 328 330 331 335 332 334 334 336 335 336 339 341 341 341 341 340 339 338 337 336 335 335 334 333 333 330 329 330 329 329 329 336 336 336 335 334 332 330 330 329 328 327 326 327 326 326 326 325 325 325 324 324 323 323 322 323 323
339 338 336 334 335 335 341 341 341 344 345 343 339 338 339 335 337 335 338 332 334 330 332 333 329 329 330 328 327 329 328 331 332 333 333 335 335 334 336 338 341 342 341 341 342 339 338 337 336 336 335 334 333 332 330 330 330 329 330 333 334 335 335 334 333 331 330 329 328 327 327 326 326 325 325 325 325 324 324 323 323 323 323 322 322
337 339 338 336 337 337 338 340 342 342 344 342 338 341 338 340 333 335 336 335 334 338 333 335 333 331 331 328 331 327 326 327 331 333 333 334 337 336 334 336 337 340 339 341 341 341 339 338 337 337 336 335 334 333 332 330 330 329 330 331 334 333 335 335 334 332 330 329 329 328 327 326 326 326 325 325 324 324 323 323 323 323 322 322 322
335 336 336 338 340 339 335 338 340 342 343 345 342 340 338 337 336 334 335 333 332 334 332 331 332 333 334 333 333 333 331 327 329 332 334 336 334 337 336 334 335 336 338 341 340 340 340 340 338 337 337 336 335 333 333 332 331 331 331 330 332 333 332 335 334 333 332 330 330 329 327 327 327 326 325 325 324 324 323 323 322 322 322 321 321
341 341 341 339 339 339 340 338 340 341 341 342 341 340 339 336 338 332 335 334 333 334 332 333 335 334 335 335 334 333 333 332 331 329 330 331 335 333 336 336 334 335 335 337 340 339 339 340 340 339 337 337 336 335 334 333 331 332 332 331 331 332 332 333 335 334 333 332 330 329 329 328 326 326 325 325 324 324 324 323 323 322 321 321 321
344 342 343 342 339 339 341 343 340 340 341 340 337 338 337 340 336 336 336 329 330 332 335 335 333 333 335 335 334 334 333 331 331 330 329 334 331 334 334 336 336 335 336 335 336 338 338 339 339 340 340 338 337 336 336 334 333 333 334 332 332 331 333 333 333 335 334 333 331 330 329 328 326 326 326 325 325 324 324 324 323 321 321 321 320
339 342 345 342 341 342 343 341 343 340 340 342 339 341 339 335 334 336 337 333 333 332 333 333 334 333 334 334 335 335 334 333 333 333 333 330 335 332 334 334 335 342 337 335 334 335 337 338 339 339 339 339 339 337 337 337 336 336 336 334 332 331 331 333 333 334 336 334 333 331 330 328 327 326 325 325 325 324 324 324 323 322 322 321 320
337 339 341 339 337 338 338 338 340 338 338 340 340 339 337 333 333 336 336 333 334 331 331 331 330 332 332 334 335 335 335 336 335 335 332 331 330 330 332 333 332 332 335 337 336 334 335 336 338 338 339 337 336 338 338 338 337 337 336 335 333 333 332 332 332 333 336 335 334 332 331 329 328 327 326 325 325 324 324 324 323 322 322 321 321
339 340 341 341 337 338 338 338 340 338 337 336 336 333 331 331 330 332 336 335 333 333 332 332 331 331 331 334 334 335 335 337 336 334 333 333 333 333 329 330 333 332 333 334 336 337 334 333 335 336 336 337 338 339 338 339 338 337 337 337 337 335 334 333 333 333 334 336 335 333 332 330 328 327 326 326 325 324 324 324 323 323 322 322 320
338 341 340 342 340 339 341 340 338 337 336 333 332 332 330 329 329 329 332 333 333 331 332 330 331 331 330 331 334 333 334 335 334 334 334 333 332 331 330 331 331 331 334 334 334 336 337 333 334 334 335 336 337 337 338 337 338 339 337 338 337 336 336 335 334 333 333 335 336 334 333 331 329 328 327 326 326 325 325 324 323 323 322 321 321
338 337 335 336 338 339 342 339 337 334 332 333 335 334 331 330 328 329 329 329 328 331 329 329 326 325 327 328 329 333 333 332 332 334 334 334 332 331 332 331 330 330 332 333 333 332 338 336 333 333 333 334 335 337 336 335 336 338 339 338 338 338 338 338 336 333 333 334 335 336 334 332 330 328 328 327 326 326 326 325 323 323 322 321 320
337 336 337 339 335 336 337 337 335 334 333 335 333 333 331 329 329 329 329 328 326 328 327 328 322 322 321 323 326 330 332 332 332 334 335 336 334 334 332 331 329 330 330 330 331 331 331 336 336 335 334 335 334 334 335 335 335 336 339 339 339 339 339 338 339 336 334 333 333 335 335 333 331 329 329 328 327 327 326 326 324 324 323 322 321
333 333 335 334 332 334 335 334 332 334 333 333 333 331 330 329 328 328 328 329 328 331 329 328 322 325 325 321 319 319 324 327 331 332 334 336 335 333 333 332 332 332 330 331 330 331 332 331 333 334 335 335 336 333 333 335 335 335 336 338 340 339 340 339 339 339 337 335 334 333 336 335 332 330 330 329 328 327 326 326 325 324 324 323 322
327 333 328 329 332 336 331 331 335 335 333 331 332 330 330 329 328 328 327 323 325 325 329 326 327 324 316 318 318 318 315 318 322 329 334 335 333 331 331 330 337 335 335 332 332 334 334 333 331 332 333 334 336 334 334 333 335 335 334 334 335 339 340 339 339 339 339 338 337 335 335 336 334 332 331 330 329 328 327 326 325 324 324 323 323
332 326 325 328 328 330 330 331 333 333 333 330 330 329 331 330 329 327 327 325 322 325 327 330 329 329 323 318 316 315 316 319 321 322 330 330 333 334 334 330 332 331 332 335 333 336 334 335 333 333 332 332 333 335 335 334 333 336 335 334 335 336 338 341 341 340 340 339 339 339 337 336 335 333 332 331 330 329 328 327 326 324 324 324 324
326 326 327 328 331 329 330 330 330 332 334 329 326 327 329 329 327 324 325 326 324 323 325 326 327 327 328 327 324 318 318 320 319 314 326 329 330 332 333 332 334 332 332 331 330 332 332 332 333 333 334 333 334 333 334 333 335 335 335 334 331 333 334 337 341 342 340 339 340 340 339 337 336 334 333 331 330 330 329 327 327 325 325 325 324
328 327 325 325 326 327 327 326 328 328 329 327 325 324 322 323 326 326 326 326 326 322 322 322 326 325 326 327 327 325 325 321 315 318 316 323 329 329 332 335 335 331 328 328 329 333 334 334 333 333 334 334 335 337 334 334 333 331 335 334 330 327 326 326 334 341 342 341 340 339 339 338 338 335 334 332 331 330 329 328 328 327 326 326 325
330 326 326 325 325 325 324 322 324 322 322 321 322 323 324 325 326 326 326 327 326 324 322 323 322 321 327 324 324 325 326 325 324 319 316 313 318 328 328 328 331 330 329 327 329 334 334 334 331 332 334 339 337 336 336 334 333 334 332 329 327 326 325 324 323 325 335 341 342 340 339 339 339 336 335 333 332 331 330 330 329 328 327 327 326
323 322 322 321 322 322 321 320 317 317 318 318 320 321 323 324 325 324 323 323 323 325 325 323 323 323 323 324 325 324 325 325 324 323 317 313 314 316 320 327 327 327 328 330 327 326 332 333 334 332 332 332 333 334 335 332 334 334 331 325 324 325 324 323 319 318 319 331 341 342 341 340 339 338 335 334 332 331 331 330 330 329 328 328 327
323 322 321 319 322 321 320 321 321 319 318 317 319 320 321 321 322 322 323 321 322 321 319 320 319 318 320 324 322 323 322 321 321 321 320 319 313 314 317 317 316 324 328 326 324 324 324 329 335 334 332 332 331 330 334 331 332 334 330 326 325 323 323 322 316 317 319 321 331 339 342 340 339 339 337 336 335 333 332 331 331 331 331 329 328
324 324 323 322 322 322 321 320 320 321 319 318 319 318 322 322 321 320 320 320 319 318 318 318 319 316 315 316 313 315 314 313 312 313 312 312 311 310 308 307 305 308 322 324 322 321 322 323 322 321 323 323 320 321 325 332 332 331 329 325 324 322 321 319 315 314 317 323 326 332 338 340 340 339 338 338 338 336 334 334 334 333 332 332 330
324 324 324 323 323 323 323 322 323 323 322 322 321 319 319 320 321 320 319 319 319 317 316 314 315 315 315 315 316 316 313 311 313 314 312 312 311 307 306 307 308 308 310 313 314 312 317 321 322 321 318 316 317 321 326 329 330 328 328 325 323 321 319 319 315 315 313 317 322 326 332 337 339 340 339 338 337 337 338 337 336 336 335 333 332
322 322 323 324 324 323 322 321 320 321 320 317 318 319 319 318 318 318 318 317 317 317 315 314 314 313 314 314 313 314 313 316 315 314 316 316 314 309 309 308 306 306 307 308 308 310 311 315 321 321 319 316 318 317 320 331 330 326 327 325 321 320 319 318 316 314 312 311 315 322 327 332 337 339 339 339 337 337 337 336 331 325 326 327 329
320 321 323 324 325 325 324 322 321 321 323 322 322 322 321 317 319 318 318 318 318 317 316 316 315 314 314 313 314 312 313 315 313 315 313 311 310 309 307 308 307 306 307 307 309 307 309 311 315 316 317 317 318 322 328 329 329 323 324 328 322 318 317 317 316 312 310 309 309 314 318 322 328 334 336 337 336 332 329 324 321 321 319 319 319
320 321 322 324 324 323 322 322 322 321 320 321 323 321 320 317 318 320 319 318 316 316 316 316 316 314 314 315 318 312 313 311 313 313 311 312 310 310 308 304 304 306 306 307 307 308 308 311 313 314 316 320 319 325 327 327 328 322 321 329 332 316 316 316 315 314 310 309 307 308 310 314 316 319 322 323 321 319 319 321 322 318 318 318 317
322 321 322 323 322 322 321 322 321 321 322 321 320 319 320 318 317 318 317 320 320 318 317 316 316 315 314 316 314 312 312 312 315 313 313 314 313 312 311 308 303 301 304 304 306 307 311 310 312 313 314 316 318 318 319 327 330 319 322 331 331 326 315 315 315 314 312 310 309 308 307 308 309 311 313 315 319 319 320 320 319 318 316 317 318
323 322 322 324 323 321 320 320 321 321 321 322 320 320 320 319 318 318 318 319 317 315 316 316 316 316 315 314 315 314 311 316 314 314 314 315 314 313 312 310 309 304 302 302 304 305 308 310 309 312 315 315 315 317 316 320 324 323 322 327 325 329 324 314 313 312 312 311 308 307 306 307 308 309 312 314 316 318 318 316 316 315 316 317 318
323 322 323 324 323 323 322 320 321 321 321 321 319 319 320 318 318 318 318 318 317 317 317 315 315 315 314 314 312 314 313 314 315 316 317 315 314 314 312 312 311 307 305 302 303 307 307 310 311 310 312 313 314 316 317 316 317 316 316 318 318 320 320 315 314 311 312 310 308 308 306 306 308 309 312 312 313 315 314 314 313 313 314 315 316
323 321 322 322 323 321 322 320 320 320 320 320 319 318 319 317 318 317 317 318 316 316 316 316 317 316 313 314 312 313 312 312 312 314 316 316 314 310 311 312 310 310 308 307 302 307 311 308 310 312 312 313 313 313 316 317 316 314 314 316 316 314 315 318 313 313 311 311 309 309 308 307 307 308 308 312 313 313 313 314 313 313 314 314 313
324 322 320 321 322 320 321 320 319 319 318 319 318 318 319 317 317 315 316 317 315 313 313 314 314 316 313 312 312 312 312 310 310 313 313 313 312 312 311 311 310 310 309 307 303 303 310 310 310 310 311 311 312 311 310 311 313 314 314 315 317 316 319 322 313 312 313 312 312 310 310 308 306 307 307 307 308 310 310 311 312 312 311 311 312
325 322 320 320 320 320 320 320 319 318 317 318 318 318 318 317 316 316 315 314 314 313 313 313 314 313 312 311 311 313 312 311 311 310 309 310 311 311 310 309 309 309 307 306 304 303 306 310 309 308 309 310 308 309 309 310 311 314 313 313 314 314 314 314 317 312 311 312 311 311 309 308 306 305 305 305 306 306 308 308 309 310 309 307 308
325 323 321 321 321 320 319 319 319 317 317 317 317 317 316 316 315 318 314 313 313 312 312 310 312 315 313 311 312 312 311 308 310 307 307 306 305 304 308 310 306 307 308 306 304 302 301 306 307 309 308 309 307 309 309 310 310 310 310 310 311 312 312 312 312 315 310 309 309 309 309 308 306 305 304 304 304 305 306 306 305 304 306 306 306
325 324 322 321 321 320 319 319 319 318 317 317 317 317 316 316 314 316 315 313 313 313 311 312 311 311 311 312 311 312 313 310 311 310 310 309 307 305 306 307 306 307 305 306 305 303 303 304 307 306 307 310 309 307 308 309 309 309 308 308 309 310 311 310 311 313 308 307 306 308 308 308 307 306 304 304 304 303 304 305 304 304 303 303 304
325 324 323 322 321 320 319 318 319 318 318 317 317 317 316 316 315 314 314 313 313 313 311 310 309 311 310 310 310 311 310 309 309 309 308 309 310 308 305 304 305 305 307 308 308 304 304 303 305 305 306 304 306 307 308 308 307 307 307 307 308 308 309 310 311 312 310 307 306 306 307 308 306 305 304 303 304 303 302 302 303 303 302 303 303
321 320 323 322 321 320 320 319 318 318 318 317 316 316 316 316 315 314 313 312 313 313 312 312 314 311 310 309 310 310 309 308 308 308 309 308 306 306 305 304 304 305 306 305 304 303 301 300 301 304 305 304 306 306 306 305 306 306 307 307 307 307 307 309 310 311 309 307 307 307 307 307 307 307 306 305 304 304 303 302 303 303 304 304 303
320 320 320 321 320 320 320 319 318 318 318 317 316 316 315 316 315 315 314 313 313 312 312 313 311 310 310 310 310 308 307 307 307 308 307 307 306 306 304 304 303 303 304 304 305 304 303 302 301 301 302 302 303 304 305 305 305 305 305 306 307 308 307 307 309 311 312 314 319 317 310 307 307 306 307 307 305 304 303 303 303 304 304 303 303
322 321 322 322 321 319 319 319 319 319 319 318 317 316 315 315 315 314 314 314 314 313 313 312 312 310 310 309 309 309 308 307 307 306 306 306 306 303 303 302 300 300 299 300 300 300 300 300 301 301 301 303 303 302 304 305 304 303 302 302 303 307 309 310 311 312 312 312 310 311 315 314 313 313 309 305 305 305 305 304 304 304 304 303 302
320 320 321 320 321 319 320 318 319 319 319 319 318 317 316 316 315 314 314 313 312 313 313 311 311 310 309 309 308 308 307 307 305 301 300 300 299 298 299 299 299 299 298 299 299 298 298 299 299 299 300 300 300 303 304 304 303 303 305 306 303 303 305 306 307 306 308 308 308 309 309 310 311 310 307 307 306 305 305 305 305 305 304 303 302
320 320 321 321 318 319 320 321 322 321 319 319 319 317 316 316 315 314 314 313 312 311 310 310 309 308 307 307 307 306 307 301 300 300 300 299 298 296 298 298 298 297 297 296 296 295 295 296 296 298 297 297 299 299 299 299 300 300 303 303 302 303 303 303 305 307 309 307 308 309 309 310 310 314 317 315 314 308 307 306 308 306 304 302 301
320 320 322 320 319 319 318 320 320 318 318 319 316 309 311 315 315 314 315 313 312 311 309 308 307 307 307 306 308 307 302 301 297 294 292 294 297 299 297 297 297 296 295 294 293 293 294 293 293 294 294 295 295 297 298 299 301 302 301 301 300 301 302 302 303 305 308 308 307 306 309 311 311 310 311 313 318 316 315 312 310 310 306 302 302
323 323 323 320 319 319 320 319 318 319 320 318 308 303 302 305 314 314 313 312 312 310 308 307 305 305 306 304 305 302 300 299 298 293 293 293 293 293 294 296 298 297 295 294 293 294 293 293 294 294 294 294 296 297 298 298 300 301 300 301 301 301 300 299 298 302 309 308 305 305 305 309 311 309 310 312 314 318 317 316 308 307 306 303 301
324 324 323 322 321 321 321 320 318 316 318 310 300 300 300 301 306 314 313 311 310 309 307 306 306 305 304 304 305 305 302 300 300 298 295 293 292 292 292 292 292 292 294 295 293 293 293 293 293 293 293 293 294 295 296 296 297 298 298 298 298 298 298 298 298 297 302 307 303 301 301 306 307 307 307 309 311 312 317 314 308 306 305 304 302
323 322 322 322 322 323 321 319 316 317 314 296 296 298 299 300 301 306 310 310 308 308 306 306 305 304 304 305 305 306 305 306 305 302 300 297 294 293 293 293 292 292 290 290 292 295 295 294 293 293 294 294 294 295 297 297 298 296 297 296 297 297 297 296 297 298 300 302 301 300 299 301 304 303 304 307 309 311 313 304 305 306 305 304 302
320 319 320 320 321 321 320 319 317 317 312 298 295 296 296 296 297 303 310 309 308 306 306 305 306 305 305 304 303 304 304 304 301 301 300 300 299 296 294 294 294 295 293 291 291 291 293 293 293 293 295 296 295 296 298 298 297 296 295 294 295 294 294 294 296 297 299 302 299 298 297 298 301 302 301 304 308 308 310 306 300 302 302 302 301
317 318 318 317 318 318 319 317 314 311 310 296 294 294 294 294 295 299 310 310 307 307 307 308 307 306 304 305 303 302 302 302 304 302 302 301 300 300 298 297 296 297 296 296 296 296 295 294 293 294 295 297 297 298 299 300 297 295 295 294 294 294 294 295 296 297 298 300 300 298 294 297 299 299 300 302 305 305 307 301 299 301 301 300 299
317 317 317 317 317 317 317 318 313 309 306 293 293 293 293 292 295 303 307 307 305 307 306 306 306 304 304 303 302 302 301 301 299 295 297 300 299 297 297 295 295 295 296 297 296 296 298 298 297 297 297 298 297 298 297 295 295 295 295 295 294 293 292 291 291 294 295 298 300 298 296 296 298 298 299 301 302 302 304 305 299 300 300 300 299
315 315 315 316 317 316 316 316 311 306 300 293 292 292 292 293 297 303 306 304 304 305 305 305 304 304 305 304 303 302 302 301 294 291 292 295 297 296 295 295 295 295 295 298 296 294 293 293 292 292 292 292 292 292 292 293 293 294 293 291 290 291 290 289 290 291 293 296 297 298 296 295 297 298 299 300 301 301 302 304 303 299 299 299 298
313 314 315 314 315 315 315 314 308 303 299 293 291 291 291 293 297 302 303 304 303 302 303 304 305 304 304 307 305 300 301 298 289 290 289 294 296 295 295 294 293 293 294 296 297 297 295 294 293 293 292 292 292 292 292 292 292 293 291 289 291 291 290 290 288 290 292 294 296 298 295 295 297 298 298 299 300 301 302 303 305 301 297 296 296
312 314 312 313 312 313 313 309 303 302 297 293 291 290 291 292 297 302 303 302 304 303 302 302 302 302 302 304 300 297 294 290 289 289 289 292 294 294 294 293 292 292 293 294 294 293 292 292 293 293 293 294 295 294 295 295 293 294 293 293 293 291 290 290 290 290 289 292 296 298 294 294 295 297 296 295 295 298 302 303 304 302 299 298 295
Wind_Speed
4 2 1 1 4 4 3 3 2 3 3 5 4 5 6 6 5 6 6 5 3 3 2 3 2 1 3 3 1 3 2 4 1 4 7 7 6 9 13 12 10 8 10 12 10 9 8 8 8 7 7 7 6 5 6 5 5 4 4 5 9 9 9 8 7 7 6 6 6 6 6 7 8 8 9 9 9 9 10 10 11 11 11 12 11
3 4 6 6 4 4 5 5 5 6 5 6 5 4 2 3 5 5 5 4 4 4 3 3 2 3 2 3 1 2 2 4 5 3 6 7 7 7 13 12 10 8 7 12 12 10 9 8 9 8 7 8 7 6 6 6 5 5 5 4 7 9 9 9 7 6 6 6 6 5 6 6 7 8 8 8 9 8 9 9 10 10 10 11 11
3 2 1 2 3 5 5 4 4 3 2 2 2 0 2 2 4 4 3 3 5 6 4 5 3 3 4 5 3 3 2 3 5 5 3 8 7 7 9 12 11 9 6 8 10 11 11 9 10 9 7 9 8 7 6 6 6 6 6 6 6 7 9 10 8 7 7 6 5 5 5 6 6 7 8 8 8 8 8 9 9 9 10 10 10
3 4 4 3 5 5 3 2 2 1 1 1 3 3 2 2 2 4 2 3 1 7 6 4 5 4 5 3 4 3 3 3 2 2 5 7 7 6 6 8 12 12 10 6 4 10 11 11 10 11 8 10 9 8 8 8 8 8 7 5 5 6 8 10 9 8 7 7 6 6 6 5 6 6 7 7 8 8 8 8 8 8 9 9 9
3 3 2 5 5 3 6 3 2 3 2 3 4 1 1 0 2 2 2 2 2 2 1 2 1 3 2 3 2 2 4 2 3 3 3 7 7 8 7 7 7 11 11 10 6 6 10 10 10 11 11 9 9 9 10 9 8 8 8 8 6 5 7 8 10 9 8 8 7 7 6 6 6 6 6 6 7 7 7 7 7 8 8 9 9
8 7 8 5 3 7 7 3 3 3 2 1 1 1 2 2 0 2 2 2 1 2 2 2 2 6 6 6 7 7 6 3 1 3 3 1 6 7 7 6 6 6 6 11 10 8 8 8 11 10 11 11 10 8 10 10 9 9 9 9 8 6 6 8 9 10 9 8 8 7 7 7 7 6 6 7 7 7 7 7 7 7 8 8 8
3 4 3 3 4 4 3 4 1 1 3 2 2 2 2 1 0 1 1 2 2 0 3 4 2 4 5 5 6 7 6 6 7 5 1 4 1 4 7 7 7 6 6 6 9 10 9 8 10 11 12 11 11 10 10 11 11 10 10 10 10 8 8 8 9 11 10 9 8 8 7 7 7 7 7 6 6 6 7 7 7 7 7 7 8
1 3 2 2 2 3 3 3 4 3 4 4 3 2 2 2 4 4 2 3 2 2 2 3 3 3 3 4 4 5 5 4 5 6 4 0 4 2 4 7 7 6 8 6 6 9 13 11 10 10 10 12 12 11 11 13 13 12 10 10 11 10 9 9 9 11 11 10 10 8 8 7 7 7 7 7 6 7 7 7 7 7 7 7 7
5 2 0 1 1 1 3 2 3 2 3 2 2 2 1 4 4 5 6 3 3 2 3 2 2 3 3 4 4 4 4 5 5 5 7 7 1 3 3 2 4 10 7 7 7 7 12 14 13 11 10 10 12 12 12 13 13 14 12 11 12 11 11 11 10 10 12 11 11 10 8 7 7 7 7 7 7 7 7 7 7 7 7 7 7
1 1 2 0 1 2 3 2 3 3 3 1 0 2 5 8 4 5 3 3 3 2 2 5 6 4 4 2 2 2 2 4 4 5 5 5 6 5 2 2 4 4 8 7 8 7 7 13 15 13 11 10 10 12 14 13 12 13 13 12 13 13 12 12 12 11 12 13 12 11 10 9 8 8 8 8 7 7 7 7 7 7 7 7 6
2 0 1 1 1 0 1 2 2 4 2 1 2 2 8 5 3 2 2 2 2 2 3 3 1 3 1 1 1 1 2 2 2 4 4 4 3 6 6 3 4 3 3 7 8 7 8 7 8 7 8 12 11 13 14 14 13 13 14 14 13 13 14 13 14 13 12 14 13 12 11 11 10 9 9 9 9 9 8 8 8 8 7 7 7
3 2 2 1 1 2 0 2 2 3 3 3 1 4 6 5 5 1 1 4 4 4 4 3 3 2 2 2 1 1 2 1 2 2 2 3 3 3 4 7 8 4 2 2 3 7 7 8 8 8 7 11 14 13 15 14 12 12 15 15 15 13 15 14 14 15 14 14 14 13 12 13 12 11 10 10 10 10 10 9 9 8 8 7 7
1 4 3 3 3 3 0 1 3 3 3 1 2 5 5 5 1 2 2 1 2 3 1 2 1 2 1 1 2 1 1 1 2 1 2 2 4 4 4 6 6 7 7 6 4 2 7 7 8 7 8 7 11 16 16 15 13 12 14 16 15 15 15 16 15 15 16 14 14 14 12 13 13 13 13 12 11 11 10 10 9 9 9 8 8
1 2 2 1 3 4 4 3 4 3 3 1 3 5 4 5 3 4 2 3 1 2 3 3 1 1 1 2 2 2 2 2 2 2 0 1 2 3 5 5 5 5 6 7 10 9 3 8 7 8 8 8 9 9 10 11 12 15 14 14 16 16 15 16 16 15 15 15 14 14 12 13 15 15 15 13 12 12 11 11 10 10 9 9 9
1 1 2 3 4 3 3 4 3 3 2 1 2 5 4 4 4 2 4 2 1 2 4 3 2 1 2 3 1 1 1 1 2 2 2 1 2 2 1 2 4 5 4 4 4 6 7 4 2 5 6 8 7 8 9 9 11 15 16 15 15 17 17 16 17 16 15 15 15 14 13 13 14 15 15 14 14 13 12 12 12 11 11 10 10
6 1 4 3 3 2 5 5 2 3 5 3 2 3 3 5 4 3 1 2 3 1 2 2 1 4 1 2 0 0 2 1 2 1 1 1 1 0 1 2 0 2 2 3 2 3 5 4 4 5 6 7 0 8 8 8 13 15 16 16 16 15 17 17 16 16 16 16 16 15 12 14 15 16 16 16 15 14 14 13 13 13 12 12 12
2 5 5 5 5 3 4 3 3 3 2 5 4 5 4 3 5 3 2 1 2 1 2 3 2 1 1 2 1 1 1 1 2 1 0 1 1 1 2 2 2 1 3 3 3 2 5 3 4 3 3 4 4 2 2 6 9 9 12 17 17 16 15 16 15 16 17 18 17 17 16 16 17 17 17 16 16 15 15 15 15 14 14 14 13
4 4 3 3 1 4 4 3 3 3 4 5 4 4 8 6 6 5 4 1 2 1 2 5 4 3 3 0 1 0 1 1 2 1 1 1 2 1 2 2 0 2 3 2 5 5 7 2 1 1 1 3 4 2 3 3 6 5 8 11 17 17 16 16 16 15 17 18 19 19 18 17 17 17 17 16 16 16 16 16 15 15 15 15 15
3 4 5 6 6 5 5 5 4 3 2 5 6 6 6 7 4 4 5 4 2 2 2 1 3 3 1 2 0 0 1 1 1 1 1 1 0 1 2 1 3 4 4 4 2 2 0 1 1 2 1 2 3 1 1 2 1 4 14 12 16 18 18 17 16 17 18 19 18 19 19 17 17 16 15 16 16 17 17 16 17 17 17 17 16
3 3 4 6 5 4 5 6 4 4 7 7 7 7 7 6 6 5 5 4 4 5 5 3 1 1 3 3 3 1 1 1 0 1 0 1 1 0 1 2 1 1 2 3 3 0 2 2 1 4 3 2 2 3 4 4 5 4 3 14 15 19 20 20 19 18 17 19 19 18 18 15 17 16 16 16 16 17 18 18 18 18 18 17 17
4 4 4 4 4 4 5 5 6 6 7 7 5 6 6 5 4 4 4 5 4 3 2 5 5 3 2 2 2 2 2 1 1 1 1 1 2 2 2 1 2 3 3 3 2 4 4 4 3 5 5 4 2 3 5 5 4 4 7 8 10 16 18 18 18 17 16 14 14 18 19 16 15 16 16 17 17 18 19 19 19 19 18 18 18
4 4 4 4 3 4 4 4 4 4 4 5 6 5 4 4 4 4 4 5 4 5 5 5 5 4 2 1 1 2 2 1 2 2 1 1 2 3 3 3 3 2 4 3 3 3 4 3 2 4 4 4 4 6 6 7 5 5 8 12 11 14 14 15 16 15 15 14 13 13 16 18 17 15 18 20 20 19 18 19 20 20 20 20 18
3 3 3 3 4 3 3 3 4 5 5 5 4 4 4 3 4 4 4 4 5 5 6 6 4 5 4 4 4 4 4 3 3 3 3 2 3 3 6 6 4 3 3 4 3 4 3 3 5 4 5 6 6 5 6 6 9 8 13 15 15 13 13 13 14 14 14 14 12 12 14 14 15 17 16 19 20 21 22 22 22 22 21 21 21
2 3 3 3 3 3 3 3 3 3 3 3 3 4 5 4 4 5 5 4 5 5 5 5 5 4 4 5 3 5 5 4 4 4 4 2 2 3 4 3 4 4 5 3 3 5 4 6 6 6 7 7 6 6 7 8 5 13 9 9 9 9 9 10 12 13 14 13 12 12 12 13 13 15 18 18 20 21 22 22 23 22 21 21 21
3 3 3 3 2 2 3 4 4 3 3 4 4 4 4 4 5 4 5 4 4 4 5 4 4 3 3 3 5 4 4 3 4 3 1 1 1 2 3 5 3 4 3 3 3 3 6 7 6 7 7 6 6 6 5 4 6 8 8 4 7 7 10 10 12 13 13 13 12 11 10 10 12 14 16 17 19 21 21 21 20 18 18 17 18
4 4 3 3 2 2 3 3 3 3 3 3 2 2 4 5 3 4 4 4 4 4 4 4 3 3 3 3 3 5 4 4 3 3 4 4 4 3 4 3 3 5 4 3 2 4 2 2 3 6 7 4 6 6 5 8 4 8 9 7 10 12 12 12 13 13 14 13 11 10 10 10 11 12 13 14 15 14 17 18 17 17 17 17 17
6 5 4 3 4 3 3 3 3 3 3 3 2 3 4 5 4 4 3 4 4 4 3 3 3 3 2 1 1 5 3 3 4 4 4 4 4 3 2 4 4 4 4 5 5 3 3 4 5 6 3 6 8 9 4 3 5 9 7 4 5 10 12 12 12 12 11 11 11 12 11 11 11 11 12 12 12 9 8 12 17 17 17 18 18
4 4 4 4 4 4 3 3 3 3 2 3 3 3 3 5 4 3 3 3 3 4 4 3 3 3 2 1 2 3 3 1 2 3 3 2 3 4 4 2 3 4 4 4 4 4 7 6 6 4 7 8 7 6 12 5 5 6 4 3 4 5 12 13 11 10 11 12 12 12 13 12 12 12 12 13 13 13 11 8 11 15 18 18 17
5 4 3 3 4 4 3 4 3 3 3 1 3 3 3 4 3 3 3 3 3 4 3 3 2 2 1 1 2 3 3 1 2 3 2 1 1 2 2 3 2 2 3 4 5 5 6 7 5 4 8 8 7 6 6 4 3 4 3 3 3 4 4 9 9 10 10 11 11 12 13 13 13 12 12 13 13 14 13 11 10 11 15 17 18
5 4 3 3 3 4 3 3 3 3 3 3 3 3 3 4 3 3 3 3 3 2 2 3 3 2 2 2 3 2 3 1 2 0 0 0 2 1 2 2 2 2 2 3 4 3 5 6 6 7 8 8 9 6 5 5 7 8 4 4 6 6 3 8 11 13 12 11 11 12 13 14 14 13 13 13 13 13 14 13 12 12 13 15 18
6 5 4 4 3 3 3 3 3 3 3 3 3 3 3 4 3 4 3 3 3 3 2 2 1 2 1 1 1 1 3 2 2 2 2 0 2 4 1 1 3 2 2 2 3 2 2 4 5 7 8 8 7 7 6 5 7 8 5 5 4 8 8 6 9 10 10 11 13 14 15 15 15 14 14 14 14 14 14 14 13 12 12 14 16
6 6 5 5 4 4 3 4 4 3 3 3 3 4 3 4 4 5 4 3 4 4 4 3 3 2 2 2 1 2 3 3 3 2 1 2 3 2 2 2 2 1 1 2 3 5 2 3 3 5 7 7 7 6 6 6 7 9 4 4 6 10 5 5 9 12 14 15 15 15 14 12 13 13 13 14 14 14 14 14 14 13 13 13 14
6 6 6 6 7 6 6 6 6 5 5 4 4 3 3 4 4 4 5 3 4 4 5 3 2 1 0 1 1 3 1 1 2 3 3 2 3 4 4 3 4 3 3 3 3 5 3 3 4 5 5 5 6 5 7 6 5 5 5 4 5 7 7 7 7 10 14 15 16 17 15 13 13 13 13 13 13 13 13 13 13 13 13 13 15
5 8 8 6 6 7 7 8 7 7 7 6 5 4 4 4 4 3 4 4 3 4 4 4 3 2 2 1 1 3 3 3 2 3 3 5 5 3 1 0 3 4 3 3 3 4 6 3 4 4 5 5 6 4 4 5 6 6 7 5 4 5 6 6 6 6 10 13 16 16 15 14 13 13 14 14 14 14 14 14 14 14 13 13 14
3 5 6 6 6 7 7 8 8 8 8 7 6 5 5 6 5 4 4 4 4 3 4 3 4 4 3 3 2 2 3 1 1 2 3 2 3 3 4 3 3 3 3 3 3 4 6 5 4 5 4 3 3 5 7 6 6 6 6 6 5 5 6 6 7 6 11 15 14 15 17 16 16 16 15 15 14 14 14 14 14 14 14 14 14
6 3 6 8 8 8 8 8 8 8 8 7 8 7 7 7 6 5 5 4 4 3 4 4 3 5 4 3 1 1 2 2 1 1 3 3 2 2 4 4 4 3 3 2 2 3 3 5 3 4 5 6 5 6 7 7 7 6 5 6 6 7 6 6 6 7 5 7 9 11 11 10 8 8 10 11 12 12 13 13 14 14 14 14 14
5 9 8 7 8 9 8 9 9 8 8 8 8 8 7 5 6 6 5 5 4 4 4 4 4 3 3 2 1 1 3 1 0 2 1 3 3 3 3 4 3 4 5 4 5 5 6 7 6 4 5 5 5 6 5 7 6 6 6 6 5 6 5 6 8 9 13 8 5 7 11 14 15 16 15 14 14 15 15 15 15 15 15 14 14
4 9 12 9 9 10 9 9 8 8 8 7 8 8 7 5 5 5 5 4 4 4 3 3 3 3 1 1 3 2 1 1 1 1 2 1 2 2 3 4 4 4 4 4 4 4 4 5 5 6 5 6 5 4 6 6 7 6 5 5 5 5 5 6 7 8 7 5 2 3 6 8 11 14 14 15 16 16 15 14 15 16 16 15 15
3 7 10 11 9 8 10 9 9 8 9 9 7 7 6 6 6 5 4 4 4 3 3 3 2 3 3 2 1 1 1 1 0 1 1 3 2 3 3 3 4 4 5 5 5 6 6 6 5 5 6 5 4 5 4 6 8 7 6 6 5 5 3 3 5 6 5 7 6 7 8 9 11 12 14 16 15 16 15 15 16 16 16 16 15
7 9 7 8 9 11 12 9 8 8 7 7 8 7 7 5 5 4 4 4 4 4 3 3 3 3 3 2 1 1 2 1 3 5 4 3 3 3 3 3 3 3 3 4 4 5 5 5 5 6 4 5 6 5 6 5 4 4 5 3 6 6 7 7 6 8 8 9 9 8 7 10 11 13 15 15 16 16 16 15 15 15 17 16 14
8 9 8 9 10 11 11 10 5 7 6 4 4 5 7 6 6 5 5 5 4 5 4 3 3 3 3 2 1 1 5 7 8 7 6 4 1 1 2 3 3 3 3 4 4 5 5 6 7 6 6 6 6 6 6 5 5 6 5 6 7 7 7 7 6 5 5 5 6 6 8 8 7 6 8 8 9 13 14 16 13 16 17 15 15
10 12 12 12 11 10 7 5 1 1 5 4 8 7 8 6 6 6 5 4 4 3 4 3 3 3 3 3 3 10 9 8 7 7 7 6 4 2 1 1 1 1 2 2 3 3 4 5 5 6 6 6 6 5 6 5 7 7 7 7 7 6 6 6 6 5 6 8 7 7 7 6 6 8 6 6 8 11 9 9 9 12 14 17 16
10 9 7 8 9 8 6 5 5 5 5 5 12 10 12 12 8 4 4 3 4 3 3 3 4 3 3 3 4 7 7 6 4 7 6 6 7 8 7 7 5 2 1 2 3 3 4 5 5 5 6 7 6 6 6 7 6 6 6 7 8 8 7 6 6 5 6 8 7 7 7 7 8 8 7 7 7 3 5 7 12 15 14 12 13
4 5 6 8 9 8 6 5 4 3 3 6 12 14 14 13 10 6 5 4 3 3 3 3 3 4 4 3 3 5 4 4 4 4 6 9 10 11 10 9 9 9 7 5 4 4 4 5 5 6 6 7 7 6 7 7 7 7 8 8 7 7 8 8 7 7 4 7 7 7 8 7 9 9 10 9 8 8 4 7 13 14 15 14 14
1 1 1 1 2 2 6 7 6 6 3 5 10 14 14 13 12 9 4 4 4 3 3 3 3 3 4 4 3 5 5 12 7 4 5 7 11 13 12 9 8 9 11 12 12 9 6 7 7 8 6 6 6 5 5 8 8 9 7 7 6 7 8 9 8 9 10 12 12 8 8 4 5 9 10 8 8 7 8 5 11 15 15 15 14
2 3 2 2 2 1 4 5 6 5 7 10 10 11 13 14 13 9 5 5 4 3 3 3 3 1 1 0 0 1 2 5 6 5 4 5 6 8 6 5 5 9 12 15 15 16 13 10 9 10 8 6 9 7 7 6 7 5 5 6 6 8 8 9 10 11 10 9 10 9 11 7 6 9 10 9 8 9 8 5 9 10 12 13 13
2 3 5 4 3 3 3 4 5 5 7 12 12 12 12 12 11 6 2 4 5 3 3 3 2 1 1 1 1 2 2 1 1 0 1 1 1 1 3 3 3 3 2 3 5 6 8 9 10 10 10 9 9 10 8 4 3 4 5 6 6 8 10 11 12 10 11 8 9 6 12 5 3 8 9 8 8 9 9 3 9 9 10 10 9
3 3 3 3 5 5 4 4 6 6 5 11 11 12 13 12 9 3 2 3 3 1 1 1 2 2 1 2 3 3 3 4 3 5 4 2 2 1 2 3 4 4 4 4 8 10 10 7 6 7 7 8 9 8 7 9 9 7 7 7 7 7 9 10 11 8 10 6 8 9 9 8 3 8 9 7 8 9 9 8 7 9 9 10 10
3 3 3 3 3 4 4 4 8 6 7 8 12 13 13 13 8 4 2 2 2 2 2 3 3 3 3 3 3 3 2 2 7 8 6 5 2 3 4 5 4 4 5 4 8 12 11 11 11 11 12 13 15 18 19 19 13 7 5 7 8 7 10 12 12 10 10 6 6 7 9 11 5 7 9 7 8 9 7 6 4 7 9 9 8
4 3 3 3 3 3 5 5 9 9 7 7 11 13 13 12 8 4 2 2 3 4 4 4 3 3 4 7 5 4 3 3 6 7 5 3 2 3 4 5 5 5 5 4 5 5 10 11 10 10 9 8 10 12 13 14 16 11 7 11 7 5 9 8 12 9 10 7 6 5 9 8 6 6 7 5 6 6 7 8 5 7 8 7 7
4 3 4 3 4 1 4 8 12 11 8 6 8 12 12 10 6 4 2 2 1 3 3 4 5 4 4 3 5 10 10 9 13 11 11 7 4 4 5 5 5 6 5 5 5 6 6 7 7 7 7 9 9 9 9 14 13 12 9 9 6 7 9 8 9 9 10 8 6 7 11 9 7 7 6 6 7 6 6 7 5 6 4 3 4
Wind_Direction
155 164 90 322 232 217 184 211 186 228 245 249 234 200 194 170 173 199 202 202 208 201 211 270 84 309 274 277 227 151 186 112 99 116 132 135 142 153 151 150 156 169 164 159 161 171 169 175 165 163 165 185 193 194 189 185 178 191 184 152 157 146 143 137 133 128 126 125 122 120 112 114 109 110 108 102 99 96 94 92 87 85 87 87 85
122 147 178 172 222 205 192 183 198 205 211 229 215 235 186 180 171 215 184 194 185 176 165 265 170 204 271 282 291 302 162 144 143 174 140 141 142 156 157 155 158 169 183 161 169 166 171 173 169 164 168 173 186 193 205 188 195 198 201 126 158 152 146 141 144 143 138 137 133 131 129 123 120 114 114 111 105 100 97 100 98 97 96 95 95
126 131 97 107 216 214 203 195 197 211 189 195 264 302 239 176 207 194 216 202 191 151 173 198 199 223 212 204 248 215 264 157 160 164 166 132 150 156 161 161 162 165 178 177 176 170 172 174 178 174 173 178 181 187 197 210 191 206 211 126 152 163 154 152 152 156 154 152 149 147 141 135 131 127 121 121 115 111 106 99 104 102 100 96 95
139 153 171 192 220 246 265 185 201 264 254 256 231 214 216 233 317 207 149 238 249 158 180 186 176 194 254 252 186 189 216 211 171 178 172 132 147 148 152 173 171 166 173 180 207 180 180 179 178 177 180 184 184 187 192 205 193 205 215 161 144 179 173 161 155 162 161 160 162 159 153 148 140 138 134 130 129 122 118 113 105 106 101 102 99
243 170 260 201 197 125 271 200 199 184 213 238 261 162 290 306 250 36 92 120 354 33 129 99 17 206 262 237 269 219 186 241 160 226 168 131 153 154 164 167 179 171 172 180 180 199 189 187 185 182 182 189 189 195 191 200 211 196 214 195 167 185 194 179 164 164 169 170 171 172 167 163 157 149 146 135 133 131 126 125 120 111 112 104 103
188 183 213 207 198 173 206 210 187 172 203 251 298 332 249 253 145 33 24 73 69 15 326 53 24 30 31 14 7 0 355 332 245 192 130 117 139 151 155 173 168 169 176 180 185 191 212 199 193 196 187 190 196 202 186 194 209 195 209 202 196 204 202 198 175 170 172 178 179 179 182 176 168 162 157 152 145 143 140 131 127 122 116 113 105
194 170 198 194 201 199 181 165 342 226 178 195 210 206 284 254 306 137 115 40 38 2 42 73 38 40 36 17 7 356 5 350 345 344 328 155 168 141 164 159 162 171 175 176 186 194 199 214 209 198 199 194 199 195 190 188 196 205 206 206 202 199 212 209 197 178 180 180 185 188 190 185 179 173 166 163 158 152 149 144 139 132 128 126 124
250 184 202 211 214 213 176 108 146 197 185 167 206 194 193 39 26 15 45 61 23 14 32 53 49 71 38 32 24 1 346 350 347 338 323 169 155 232 168 161 162 173 177 173 182 192 197 203 213 219 204 200 198 198 196 193 195 202 207 205 205 207 202 214 204 199 183 183 187 193 197 191 190 183 174 171 169 163 159 155 148 147 143 137 136
229 201 7 315 302 309 20 106 180 143 143 150 192 200 65 82 40 23 28 59 23 17 56 45 64 65 52 32 10 2 350 352 347 353 338 340 332 207 188 197 166 177 172 175 181 188 196 197 206 212 221 206 201 204 200 200 205 201 202 203 203 205 206 206 213 209 198 190 191 192 198 198 195 192 183 180 177 175 166 165 161 157 157 151 150
49 325 126 166 340 346 29 277 80 89 58 6 47 0 64 47 7 30 37 36 58 4 360 34 341 11 52 21 33 12 351 342 345 332 322 332 337 316 269 212 219 181 175 175 179 183 189 200 202 206 208 215 203 206 207 209 213 197 208 204 203 204 205 207 210 213 206 198 195 194 195 194 199 201 189 187 186 184 180 176 170 169 165 166 159
166 82 359 228 127 130 167 102 99 99 84 20 68 20 61 33 5 8 56 65 61 39 22 35 157 267 123 143 17 6 343 325 338 328 332 327 336 343 312 262 211 215 193 176 179 179 180 187 196 199 210 207 209 206 212 214 218 203 204 208 208 207 204 208 210 209 210 203 198 198 192 188 195 203 198 194 193 190 190 186 181 178 173 171 168
167 169 190 115 47 42 312 145 88 92 96 107 44 70 99 143 207 164 136 80 56 37 13 14 346 22 37 342 350 7 294 346 310 321 316 321 351 352 352 351 340 310 260 241 208 166 180 178 188 197 203 204 207 209 213 218 223 219 208 207 211 210 200 206 208 207 210 205 206 199 188 187 188 200 204 201 198 196 197 193 190 185 181 179 175
4 168 185 185 154 166 122 54 99 79 86 88 106 95 115 125 52 360 22 45 81 86 41 301 286 343 51 337 287 240 261 258 260 283 310 342 342 7 4 354 337 334 336 320 284 187 172 181 185 195 204 197 205 211 212 216 223 226 219 212 215 215 203 202 205 206 207 210 207 205 196 187 187 192 200 203 202 201 202 198 197 194 188 186 186
95 21 348 194 169 152 117 82 62 74 50 44 93 103 110 114 146 143 212 139 228 157 184 174 289 176 49 29 338 279 247 245 246 246 76 346 357 17 5 358 339 350 350 349 333 313 222 176 187 195 202 204 194 203 211 215 220 224 223 223 218 218 212 204 206 205 206 210 212 209 197 190 189 192 198 201 203 203 204 202 200 200 194 194 193
98 61 267 46 25 55 102 119 128 123 116 91 97 94 82 105 142 154 150 136 142 184 193 192 121 56 44 29 282 302 308 296 270 267 257 150 58 27 351 6 332 336 341 331 316 318 320 348 297 235 217 213 190 195 199 205 214 218 221 224 224 222 217 214 208 209 209 208 211 214 197 195 189 192 199 201 203 203 204 203 201 202 199 198 199
7 329 88 31 12 37 62 51 100 151 143 130 119 104 129 105 92 75 61 161 144 131 172 192 246 139 141 192 290 338 274 272 307 291 241 188 76 321 358 29 109 234 204 243 320 304 323 329 22 5 353 334 235 190 184 200 211 214 220 224 226 225 223 220 214 212 212 213 211 213 198 194 191 195 199 204 203 204 202 201 200 203 201 200 200
47 41 40 42 25 17 86 74 54 45 108 150 153 158 139 133 122 126 172 181 135 127 150 210 210 153 152 140 182 209 256 258 274 265 230 88 209 189 179 229 201 290 264 133 272 32 323 2 21 357 343 346 351 12 302 208 203 213 218 222 225 226 229 228 227 219 213 213 212 213 205 197 193 196 199 204 207 203 203 202 200 202 203 202 203
55 47 43 99 94 30 11 127 94 42 35 39 47 111 135 150 144 132 111 291 119 137 114 42 346 329 253 16 31 166 191 261 287 271 236 188 168 124 35 40 120 274 222 201 162 183 204 176 204 247 354 337 342 234 118 336 316 258 211 217 218 223 225 230 231 232 228 224 217 217 216 202 195 196 198 201 203 203 202 203 200 201 205 205 205
42 49 49 38 35 33 22 18 75 92 81 62 50 43 64 55 49 113 134 162 158 100 83 99 172 227 260 323 319 49 341 333 303 320 318 320 18 65 71 10 11 344 337 323 331 112 222 189 277 296 179 199 216 195 62 155 166 309 275 220 210 216 222 225 229 231 231 231 228 223 227 219 202 200 199 199 199 200 201 202 202 203 206 207 208
76 72 62 56 37 36 27 15 13 61 67 55 51 44 45 53 50 37 47 57 116 133 134 161 151 231 173 167 234 203 203 292 336 358 358 326 334 352 208 252 218 233 262 303 311 282 263 228 113 305 282 235 194 176 173 189 180 171 237 256 213 212 216 218 220 226 230 231 233 234 234 225 212 201 200 197 196 198 200 202 204 209 206 209 209
76 58 60 67 71 48 37 35 33 32 64 69 68 62 56 55 52 44 49 55 44 48 117 137 156 159 168 175 185 176 159 204 118 179 121 17 310 334 320 205 227 231 228 210 231 276 259 254 214 196 224 233 226 223 205 203 199 170 203 236 236 221 218 220 222 224 229 234 238 238 238 235 233 207 203 202 198 199 201 203 204 210 213 210 210
51 65 74 74 70 73 63 46 46 68 83 100 97 80 81 73 62 52 55 61 46 46 45 38 56 25 48 61 114 127 189 158 228 224 202 152 208 284 255 264 263 212 219 237 245 244 240 227 213 233 235 240 230 231 216 209 184 190 214 213 223 222 217 220 222 227 229 232 234 240 243 243 237 224 203 210 209 203 203 204 208 210 214 217 215
89 77 78 72 68 69 74 77 61 48 64 63 66 104 124 109 94 86 67 65 61 54 39 26 38 48 28 39 54 45 48 47 38 6 16 12 359 341 347 320 310 313 227 208 236 256 254 243 253 255 236 234 231 231 226 202 186 201 202 199 203 200 204 208 213 221 228 231 233 239 243 246 247 240 226 213 215 214 213 214 216 217 218 218 218
107 96 84 89 81 85 89 81 68 72 67 70 103 95 84 81 73 71 69 59 66 61 54 44 29 36 31 15 30 57 47 35 4 15 45 26 357 308 287 318 342 359 346 310 252 252 233 239 237 248 239 236 243 238 233 224 194 178 185 207 223 210 199 202 209 215 219 223 229 236 243 246 246 247 241 236 232 222 217 218 218 221 220 221 221
147 122 122 128 122 107 98 81 74 70 73 89 85 89 87 93 98 83 85 98 87 75 67 63 51 39 13 24 26 50 57 38 18 346 356 189 245 319 341 353 337 320 294 292 273 240 228 233 236 235 244 239 243 237 230 97 114 151 150 195 207 199 194 199 204 211 212 213 218 226 238 245 248 244 245 242 235 235 231 223 219 219 216 216 220
149 140 150 139 145 115 86 94 97 85 79 64 60 93 116 102 90 95 87 82 89 94 90 89 80 64 26 32 19 49 14 34 357 337 2 10 17 34 358 332 327 308 300 289 312 336 296 280 244 236 230 268 269 239 161 135 164 155 170 174 190 190 194 200 205 206 209 211 215 221 228 238 241 241 243 243 244 234 230 233 223 215 211 211 214
152 144 161 163 125 107 104 115 118 114 119 127 95 63 67 78 78 88 82 69 86 96 90 88 86 80 60 347 66 65 34 20 351 38 12 21 5 11 4 335 331 318 328 334 326 293 332 320 339 354 29 45 14 7 15 40 109 159 200 184 185 196 199 206 208 207 206 211 215 219 223 229 230 234 236 243 251 260 255 232 218 215 214 211 211
142 142 175 150 140 135 138 136 131 135 136 146 145 112 110 109 120 114 119 144 130 126 126 112 98 97 69 341 75 113 84 7 354 61 56 15 360 350 335 336 344 335 331 315 326 334 355 344 334 2 16 21 15 8 354 79 99 138 184 214 213 206 211 216 210 202 205 210 214 217 221 225 230 229 233 240 242 243 241 235 232 218 213 215 214
138 144 174 144 144 148 159 142 150 159 159 158 107 123 142 128 123 132 119 105 84 71 91 112 101 76 77 47 349 114 83 359 49 22 39 73 11 311 316 318 358 302 322 336 326 348 331 335 325 349 16 1 4 359 4 36 80 38 329 307 330 317 236 219 212 208 208 210 214 218 221 223 225 226 228 236 244 242 238 230 226 228 222 216 215
137 147 175 150 154 171 156 153 166 160 170 168 146 157 148 129 151 140 133 126 128 143 107 82 79 96 53 48 348 64 103 29 97 221 84 74 261 238 261 308 333 343 335 316 307 305 312 327 348 342 345 353 345 351 353 345 334 346 332 329 326 314 257 208 203 209 207 205 209 216 218 219 220 221 220 224 234 243 245 238 226 223 225 225 219
137 146 179 164 170 187 166 169 174 175 177 179 162 167 165 132 164 125 132 165 154 145 112 110 147 119 115 97 359 44 58 10 280 204 189 135 349 314 353 13 324 349 330 300 299 277 356 312 327 338 332 337 344 341 334 331 324 327 330 315 294 303 303 249 228 223 220 213 214 216 217 214 213 215 218 220 222 231 240 244 240 235 232 224 218
147 155 180 177 180 191 186 179 179 186 187 177 179 185 175 151 166 150 174 186 147 150 144 173 169 152 143 202 128 30 36 350 335 12 347 201 183 221 285 285 267 233 288 281 259 280 303 300 311 323 331 332 329 316 322 322 327 334 322 320 322 332 309 278 227 222 218 222 224 225 226 218 214 215 218 220 221 225 231 237 239 235 231 229 226
152 164 185 189 189 193 192 191 189 190 188 181 192 184 193 161 196 169 163 193 168 168 158 160 117 165 188 6 138 132 123 296 340 322 293 259 208 196 223 236 237 224 215 245 278 292 301 331 330 314 319 328 311 314 310 311 313 321 328 312 298 285 291 283 287 241 232 232 231 234 228 217 211 209 212 215 218 222 225 232 237 237 233 229 226
168 169 192 198 196 196 201 196 195 191 195 184 190 181 195 176 201 178 164 193 198 165 149 177 156 160 102 271 342 97 72 16 353 305 341 355 341 322 301 51 353 360 348 349 317 306 297 309 308 315 306 290 287 299 301 314 314 313 304 300 291 289 282 284 275 291 266 239 243 244 236 220 208 206 208 211 214 215 218 223 230 234 236 231 230
187 186 193 204 204 203 206 204 199 196 194 189 189 184 199 180 195 174 176 195 201 158 154 193 181 154 163 178 202 164 141 193 271 284 282 314 338 330 347 355 335 319 302 286 300 292 294 290 281 287 278 293 315 319 309 294 284 282 284 285 283 281 284 272 266 257 263 262 242 236 233 221 206 204 205 209 212 213 215 219 223 228 230 230 230
345 304 210 207 207 211 212 212 206 198 196 192 190 192 201 186 190 176 187 197 196 169 165 182 204 146 170 168 169 139 147 193 242 328 320 284 274 353 353 340 333 313 306 312 277 277 281 300 305 310 323 316 300 293 289 291 293 284 273 278 274 274 273 279 292 294 279 296 278 252 246 246 236 215 211 217 219 220 220 221 224 227 229 230 230
331 305 285 227 217 209 213 214 214 205 201 197 193 194 201 189 186 180 187 197 189 183 179 186 175 141 139 149 187 158 144 168 203 243 271 24 359 356 333 337 319 341 349 346 336 328 320 306 301 291 291 287 289 293 297 297 296 295 299 296 302 303 301 307 307 304 302 308 267 229 207 202 204 209 212 212 214 216 217 218 222 226 228 228 227
236 256 268 261 226 218 212 214 216 214 204 203 199 194 200 190 186 189 188 193 182 184 183 182 149 127 166 169 172 159 137 167 191 40 35 344 7 345 348 345 333 319 321 325 318 303 297 294 303 310 307 299 299 283 289 284 278 281 281 277 278 275 280 278 272 272 272 273 242 237 231 231 228 224 222 219 218 218 218 218 221 225 227 226 225
235 260 268 269 264 241 220 215 218 215 208 201 200 188 199 195 188 193 185 188 170 182 178 167 163 157 168 187 184 151 149 130 157 167 60 41 29 7 356 353 341 348 336 329 324 318 309 298 294 283 288 280 281 298 301 304 301 299 301 298 287 291 288 303 317 320 325 318 309 247 233 225 225 225 229 229 226 225 224 224 226 228 230 228 224
207 240 262 302 331 333 312 291 236 218 214 200 193 180 193 195 182 194 181 186 177 177 175 166 172 155 150 166 170 159 179 116 77 72 67 55 30 2 345 344 339 337 334 325 326 318 314 308 303 305 296 299 299 281 282 288 296 301 292 322 323 322 323 323 321 318 315 320 310 309 247 240 246 244 240 234 233 234 233 232 231 229 229 230 229
213 212 215 221 230 235 233 243 303 326 321 286 219 178 184 193 170 193 180 189 182 175 169 169 163 154 155 165 175 165 99 104 102 101 109 115 65 329 338 1 353 354 347 349 335 334 321 315 310 313 312 310 308 317 322 319 313 306 317 327 308 308 301 300 295 285 285 277 280 281 287 298 282 246 225 232 233 233 239 231 232 228 226 224 223
218 215 195 196 217 222 235 229 136 185 264 288 298 248 194 186 173 187 175 179 187 183 163 179 175 157 185 166 153 120 130 128 133 127 120 127 171 194 237 296 301 340 345 332 313 305 308 299 296 303 302 296 302 309 311 311 313 317 317 311 297 293 295 284 282 272 266 273 283 285 288 285 280 288 274 235 224 221 235 226 225 224 221 219 219
207 205 193 183 207 217 217 146 203 185 183 199 232 214 212 184 170 158 158 174 184 179 162 184 168 179 182 197 144 151 141 149 145 156 154 180 201 223 229 214 221 223 268 278 286 281 286 288 291 291 291 296 303 314 316 320 319 329 336 340 328 327 317 313 304 316 327 347 333 330 319 321 324 312 309 312 310 288 225 242 229 230 229 217 217
210 194 191 192 196 205 196 180 184 185 205 209 216 198 183 163 142 147 152 156 160 165 168 186 174 181 192 198 173 154 173 167 190 179 197 205 215 223 224 232 241 242 228 224 244 267 264 271 278 280 291 292 302 315 310 314 323 338 334 329 318 313 312 307 302 290 311 359 345 327 305 323 329 325 317 310 306 306 289 229 226 229 222 212 204
183 161 218 243 261 182 169 181 194 184 161 191 184 167 154 142 137 128 150 163 155 181 168 198 206 194 192 178 185 165 189 193 199 200 184 204 224 225 227 233 247 246 249 251 250 250 266 266 270 270 263 281 294 301 310 315 323 308 310 306 325 335 333 323 319 326 326 329 324 315 303 314 324 304 299 301 306 305 308 298 233 217 210 207 200
216 207 219 229 249 228 167 193 193 178 164 181 166 144 133 132 135 137 173 142 155 181 193 194 204 217 184 127 138 186 170 163 191 200 217 221 200 214 225 231 238 245 244 246 250 252 248 250 261 270 274 278 270 268 275 280 289 314 343 321 331 316 312 301 306 300 300 307 296 302 289 296 297 288 283 288 292 291 296 227 210 205 200 199 195
265 225 198 208 210 226 173 151 141 146 171 174 164 146 130 122 114 98 83 125 160 174 176 175 165 183 161 179 222 264 284 294 244 138 228 252 266 195 188 205 219 244 270 267 246 233 239 240 244 248 255 257 265 272 276 288 315 295 283 284 290 291 291 290 285 283 287 284 284 279 278 295 278 280 276 284 282 286 290 245 209 195 188 179 179
287 299 268 207 197 200 204 194 133 151 156 163 148 136 125 116 109 101 56 104 122 144 192 197 184 186 196 188 220 229 240 245 208 165 168 200 248 268 269 261 261 258 254 251 261 268 267 251 228 232 240 252 259 261 269 275 280 286 288 285 284 287 290 287 282 292 279 281 274 275 277 280 256 271 282 281 283 280 278 264 207 208 190 182 182
230 248 269 255 222 214 202 192 136 146 141 160 147 138 128 123 117 100 84 111 140 210 222 207 199 192 204 206 206 230 236 262 138 148 158 159 207 232 250 267 271 273 263 262 265 267 265 260 261 272 280 289 291 290 288 282 272 260 272 279 276 282 277 280 278 277 273 275 265 273 282 284 280 272 278 278 277 276 278 267 182 200 191 182 165
257 244 246 254 265 228 216 158 142 135 146 152 147 134 129 130 122 118 140 154 211 202 218 212 203 206 217 210 201 216 226 36 92 61 36 11 275 278 280 282 280 276 276 278 285 279 286 294 306 316 314 303 293 290 285 279 277 276 259 265 270 269 267 267 279 278 279 269 274 302 291 278 311 291 290 284 278 272 263 269 203 192 187 166 148
268 263 258 269 255 308 45 98 124 128 126 140 147 135 132 124 78 33 15 264 226 232 214 213 200 204 218 208 51 61 74 89 77 70 48 27 357 351 338 326 303 293 296 316 322 330 333 322 309 309 301 304 302 301 297 294 279 262 249 254 257 252 262 265 271 282 278 270 258 246 259 276 278 281 293 303 286 283 265 260 226 188 163 126 118